Caro, MI

10:53 AM EDT on March 24, 2017 (GMT -0400)
Caro

Weather History for KCFS - October, 2013

Change the Weather History Date:

Thursday, October 24, 2013

  Actual Average (KMBS) Record (KMBS)
Temperature  
Mean Temperature 36 °F -  
Max Temperature 46 °F 54 °F 75 °F (2012)
Min Temperature 26 °F 36 °F 26 °F (2002)
Degree Days  
Heating Degree Days 29    
Moisture  
Dew Point 30 °F    
Average Humidity 82    
Maximum Humidity 99    
Minimum Humidity 56    
Precipitation  
Precipitation 0.00 in - - ()
Sea Level Pressure  
Sea Level Pressure 29.98 in    
Wind  
Wind Speed 6 mph (West)    
Max Wind Speed 13 mph    
Max Gust Speed 21 mph    
Visibility 10 miles    
Events Rain    
Averages and records for this station are not official NWS values.
T = Trace of Precipitation, MM = Missing Value Source: NWS Daily Summary

Daily Weather History Graph

Daily Weather History Graph

Search for Another Location

Airport or City:

Trip Planner

Search our weather history database for the weather conditions in past years. The results will help you decide how hot, cold, wet, or windy it might be!

Date:

Astronomy

Oct. 24, 2013 Rise Set
Actual Time 7:59 AM EDT 6:35 PM EDT
Civil Twilight 7:29 AM EDT 7:05 PM EDT
Nautical Twilight 6:56 AM EDT 7:38 PM EDT
Astronomical Twilight 6:23 AM EDT 8:11 PM EDT
Moon 10:55 PM EDT 1:03 PM EDT
Length of Visible Light 11h 35m
Length of Day
10h 36m
Waning Gibbous, 71% of the Moon is Illuminated
Oct 24
Waning Gibbous
Oct 26
Last Quarter
Nov 3
New
Nov 10
First Quarter
Nov 17
Full

Hourly Weather History & Observations

Time (EDT) Temp. Windchill Dew Point Humidity Pressure Visibility Wind Dir Wind Speed Gust Speed Precip Events Conditions
12:15 AM 33.3 °F 27.1 °F 29.1 °F 85% 29.89 in 10.0 mi West 6.9 mph - N/A   Scattered Clouds
12:35 AM 33.1 °F 28.7 °F 29.3 °F 86% 29.88 in 10.0 mi West 4.6 mph - N/A   Mostly Cloudy
12:54 AM 32.7 °F 28.3 °F 29.3 °F 87% 29.88 in 10.0 mi WSW 4.6 mph - N/A   Scattered Clouds
1:15 AM 31.3 °F 27.9 °F 28.0 °F 88% 29.88 in 10.0 mi SW 3.5 mph - N/A   Scattered Clouds
1:35 AM 30.0 °F - 27.5 °F 90% 29.89 in 10.0 mi Calm Calm - N/A   Mostly Cloudy
1:55 AM 29.5 °F 25.9 °F 27.3 °F 92% 29.89 in 10.0 mi SW 3.5 mph - N/A   Scattered Clouds
2:15 AM 28.8 °F 25.0 °F 27.1 °F 94% 29.89 in 10.0 mi SSW 3.5 mph - N/A   Clear
2:34 AM 28.0 °F - 26.4 °F 94% 29.89 in 10.0 mi Calm Calm - N/A   Clear
2:55 AM 26.6 °F 22.6 °F 25.2 °F 94% 29.89 in 10.0 mi SSW 3.5 mph - N/A   Clear
3:15 AM 27.1 °F 21.8 °F 25.9 °F 95% 29.89 in 10.0 mi SW 4.6 mph - N/A   Clear
3:34 AM 27.1 °F - 26.1 °F 96% 29.89 in 10.0 mi Calm Calm - N/A   Clear
3:55 AM 27.5 °F 23.6 °F 26.4 °F 96% 29.89 in 10.0 mi SW 3.5 mph - N/A   Clear
4:15 AM 26.6 °F 22.6 °F 25.7 °F 96% 29.89 in 10.0 mi SW 3.5 mph - N/A   Clear
4:34 AM 27.3 °F 23.4 °F 26.4 °F 96% 29.90 in 10.0 mi SW 3.5 mph - N/A   Clear
4:55 AM 28.2 °F 22.0 °F 27.3 °F 96% 29.90 in 10.0 mi SW 5.8 mph - N/A   Clear
5:15 AM 28.2 °F - 27.3 °F 96% 29.90 in 10.0 mi Calm Calm - N/A   Clear
5:34 AM 28.0 °F 24.2 °F 27.1 °F 96% 29.90 in 10.0 mi SW 3.5 mph - N/A   Clear
5:55 AM 27.7 °F 22.4 °F 26.8 °F 96% 29.91 in 10.0 mi SW 4.6 mph - N/A   Clear
6:15 AM 28.2 °F 24.4 °F 27.3 °F 96% 29.92 in 10.0 mi SW 3.5 mph - N/A   Clear
6:34 AM 28.2 °F 23.1 °F 27.3 °F 96% 29.92 in 10.0 mi SW 4.6 mph - N/A   Clear
6:55 AM 27.1 °F 23.2 °F 26.2 °F 96% 29.92 in 10.0 mi SW 3.5 mph - N/A   Clear
7:15 AM 27.5 °F - 26.8 °F 97% 29.92 in 10.0 mi Calm Calm - N/A   Clear
7:35 AM 27.9 °F 24.0 °F 27.1 °F 97% 29.93 in 10.0 mi SW 3.5 mph - N/A   Clear
7:55 AM 27.3 °F 23.4 °F 26.4 °F 96% 29.93 in 10.0 mi SW 3.5 mph - N/A   Clear
8:14 AM 27.1 °F 21.8 °F 26.6 °F 98% 29.94 in 7.0 mi SW 4.6 mph - N/A   Clear
8:35 AM 27.9 °F 24.0 °F 27.3 °F 98% 29.95 in 10.0 mi SW 3.5 mph - N/A   Clear
8:55 AM 30.2 °F 25.4 °F 29.8 °F 99% 29.96 in 10.0 mi SW 4.6 mph - N/A   Clear
9:14 AM 32.0 °F 25.6 °F 31.6 °F 99% 29.96 in 10.0 mi SW 6.9 mph - N/A   Clear
9:35 AM 33.8 °F 27.0 °F 33.1 °F 97% 29.97 in 10.0 mi WSW 8.1 mph - N/A   Clear
9:55 AM 35.6 °F 28.0 °F 34.0 °F 94% 29.97 in 10.0 mi WSW 10.4 mph - N/A   Clear
10:14 AM 36.9 °F 29.1 °F 33.6 °F 88% 29.97 in 10.0 mi WSW 11.5 mph - N/A   Clear
10:35 AM 38.3 °F 30.9 °F 33.3 °F 82% 29.97 in 10.0 mi WSW 11.5 mph 17.3 mph N/A   Scattered Clouds
10:54 AM 39.6 °F 33.0 °F 34.3 °F 82% 29.97 in 10.0 mi West 10.4 mph - N/A   Scattered Clouds
11:15 AM 39.7 °F 32.7 °F 32.4 °F 75% 29.98 in 10.0 mi West 11.5 mph 17.3 mph N/A   Scattered Clouds
11:35 AM 42.6 °F 35.9 °F 33.4 °F 70% 29.98 in 10.0 mi West 12.7 mph 17.3 mph N/A   Mostly Cloudy
11:54 AM 40.5 °F 33.2 °F 32.5 °F 73% 29.99 in 10.0 mi West 12.7 mph - N/A   Mostly Cloudy
12:15 PM 42.4 °F 36.5 °F 33.3 °F 70% 29.99 in 10.0 mi West 10.4 mph 18.4 mph N/A   Mostly Cloudy
12:35 PM 43.2 °F 37.0 °F 32.4 °F 66% 29.99 in 10.0 mi West 11.5 mph 18.4 mph N/A   Scattered Clouds
12:54 PM 43.7 °F 38.1 °F 32.0 °F 63% 29.99 in 10.0 mi WNW 10.4 mph 20.7 mph N/A   Scattered Clouds
1:15 PM 46.0 °F 41.4 °F 32.4 °F 59% 29.98 in 10.0 mi West 9.2 mph 18.4 mph N/A   Mostly Cloudy
1:34 PM 45.0 °F 38.9 °F 31.5 °F 59% 29.98 in 10.0 mi West 12.7 mph 18.4 mph N/A   Overcast
1:54 PM 44.6 °F 38.4 °F 31.3 °F 60% 29.98 in 10.0 mi West 12.7 mph 17.3 mph N/A   Overcast
2:15 PM 44.4 °F 38.2 °F 31.1 °F 60% 29.98 in 10.0 mi West 12.7 mph 16.1 mph N/A   Overcast
2:34 PM 45.5 °F 39.6 °F 30.9 °F 57% 29.99 in 10.0 mi WNW 12.7 mph 16.1 mph N/A   Overcast
2:55 PM 45.0 °F 38.9 °F 31.3 °F 59% 29.98 in 10.0 mi West 12.7 mph 16.1 mph N/A   Overcast
3:14 PM 45.5 °F 40.3 °F 30.7 °F 56% 29.99 in 10.0 mi WNW 10.4 mph - N/A   Overcast
3:34 PM 41.7 °F 38.8 °F 34.0 °F 74% 30.00 in 7.0 mi NW 4.6 mph - N/A Rain Light Rain
3:55 PM 42.1 °F 38.4 °F 35.1 °F 76% 30.00 in 10.0 mi WNW 5.8 mph - N/A Rain Light Rain
4:14 PM 44.8 °F 40.4 °F 35.2 °F 69% 30.00 in 10.0 mi West 8.1 mph - N/A   Scattered Clouds
4:35 PM 44.8 °F 39.0 °F 34.2 °F 66% 30.01 in 10.0 mi WNW 11.5 mph 18.4 mph N/A   Mostly Cloudy
4:55 PM 44.2 °F 38.0 °F 32.2 °F 63% 30.02 in 10.0 mi WNW 12.7 mph 18.4 mph N/A   Mostly Cloudy
5:14 PM 45.0 °F 39.3 °F 31.6 °F 60% 30.02 in 10.0 mi WNW 11.5 mph - N/A   Overcast
5:35 PM 45.1 °F 40.3 °F 32.0 °F 60% 30.03 in 10.0 mi WNW 9.2 mph - N/A   Scattered Clouds
5:54 PM 43.7 °F 38.6 °F 31.8 °F 63% 30.04 in 10.0 mi WNW 9.2 mph - N/A   Mostly Cloudy
6:15 PM 43.0 °F 36.4 °F 31.8 °F 65% 30.05 in 10.0 mi West 12.7 mph 17.3 mph N/A   Overcast
6:35 PM 42.3 °F 36.8 °F 32.0 °F 67% 30.06 in 10.0 mi West 9.2 mph 17.3 mph N/A   Overcast
6:54 PM 41.9 °F 36.3 °F 32.0 °F 68% 30.07 in 10.0 mi West 9.2 mph - N/A   Overcast
7:15 PM 40.5 °F 35.8 °F 32.0 °F 72% 30.07 in 10.0 mi West 6.9 mph - N/A   Mostly Cloudy
7:35 PM 39.2 °F 35.0 °F 32.0 °F 75% 30.08 in 10.0 mi West 5.8 mph - N/A   Scattered Clouds
7:54 PM 38.3 °F 34.8 °F 32.0 °F 78% 30.08 in 10.0 mi West 4.6 mph - N/A   Scattered Clouds
8:15 PM 36.9 °F 33.1 °F 32.0 °F 83% 30.09 in 10.0 mi West 4.6 mph - N/A   Clear
8:35 PM 36.5 °F 32.7 °F 31.6 °F 83% 30.09 in 10.0 mi West 4.6 mph - N/A   Clear
8:54 PM 35.8 °F 30.9 °F 31.6 °F 85% 30.10 in 10.0 mi West 5.8 mph - N/A   Scattered Clouds
9:15 PM 36.5 °F 30.3 °F 31.8 °F 83% 30.10 in 10.0 mi West 8.1 mph - N/A   Mostly Cloudy
9:35 PM 36.9 °F 32.2 °F 31.1 °F 80% 30.10 in 10.0 mi West 5.8 mph - N/A   Mostly Cloudy
9:54 PM 36.5 °F 31.0 °F 30.6 °F 79% 30.10 in 10.0 mi West 6.9 mph - N/A   Mostly Cloudy
10:15 PM 35.8 °F 30.9 °F 30.0 °F 80% 30.11 in 10.0 mi West 5.8 mph - N/A   Clear
10:34 PM 34.5 °F 30.4 °F 29.7 °F 82% 30.12 in 10.0 mi West 4.6 mph - N/A   Clear
10:55 PM 33.8 °F 27.7 °F 30.0 °F 86% 30.12 in 10.0 mi West 6.9 mph - N/A   Clear
11:15 PM 33.8 °F 28.6 °F 30.0 °F 86% 30.12 in 10.0 mi West 5.8 mph - N/A   Clear
11:34 PM 33.4 °F 28.1 °F 29.8 °F 87% 30.12 in 10.0 mi West 5.8 mph - N/A   Clear
11:55 PM 33.8 °F 29.6 °F 29.8 °F 85% 30.13 in 10.0 mi West 4.6 mph - N/A   Clear